Waarnemingen

Advertentie
Mijn weer
Tortosa, Spanje (8238): temperatuur & dauwpunt: 16.08.2018 01:00:00 - 22.08.2018 01:00:00 (CEST)Tortosa, Spanje (8238): windsnelheid: 16.08.2018 01:00:00 - 22.08.2018 01:00:00 (CEST)Tortosa, Spanje (8238): windrichting: 16.08.2018 01:00:00 - 22.08.2018 01:00:00 (CEST)Tortosa, Spanje (8238): luchtdruk: 16.08.2018 01:00:00 - 22.08.2018 01:00:00 (CEST)Tortosa, Spanje (8238): zicht: 16.08.2018 01:00:00 - 22.08.2018 01:00:00 (CEST)Tortosa, Spanje (8238): neerslag: 16.08.2018 01:00:00 - 22.08.2018 01:00:00 (CEST)
Datum & Tijd tt [°C] td [°C] ff [km/u] ff [kn] dd ppp [hPa] vv [km] rr [mm]
22.08.2018 01:00:00 - - - - - - - -
22.08.2018 00:00:00 25,1 19,7 8 4 ZW 1015,8 20 0,0
21.08.2018 23:00:00 25,8 18,0 9 5 ZO 1015,8 20 -
21.08.2018 22:00:00 26,4 18,8 9 5 ZO 1015,1 20 0,0
21.08.2018 21:00:00 27,7 18,1 11 6 ZZO 1014,5 20 0,0
21.08.2018 20:00:00 30,2 17,3 16 9 ZZO 1014,0 12 -
21.08.2018 19:00:00 32,7 16,9 16 9 ZZO 1013,9 20 0,0
21.08.2018 18:00:00 34,3 14,7 18 10 Z 1014,2 20 0,0
21.08.2018 17:00:00 33,4 14,0 18 10 ZO 1014,5 12 -
21.08.2018 16:00:00 34,7 14,1 16 9 ZZO 1015,0 20 0,0
21.08.2018 15:00:00 34,2 17,4 16 9 ZZO 1015,2 20 0,0
21.08.2018 14:00:00 35,2 15,0 13 7 ZZO 1015,6 12 -
21.08.2018 13:00:00 34,4 14,3 8 4 ZZO 1016,2 20 0,0
21.08.2018 12:00:00 33,0 14,1 5 3 N 1016,8 20 0,0
21.08.2018 11:00:00 30,6 15,5 8 4 N 1017,2 12 -
21.08.2018 10:00:00 28,0 15,6 9 5 N 1017,3 20 0,0
21.08.2018 09:00:00 24,1 15,6 9 5 N 1017,4 18 0,0
21.08.2018 08:00:00 20,6 14,9 9 5 NNW 1017,4 12 -
21.08.2018 07:00:00 20,5 15,3 5 3 NW 1017,0 20 0,0
21.08.2018 06:00:00 20,7 15,7 2 1 NW 1016,6 20 0,0
21.08.2018 05:00:00 21,6 15,4 5 3 NNW 1016,5 20 -
21.08.2018 04:00:00 21,9 16,4 8 4 N 1016,6 20 0,0
21.08.2018 03:00:00 22,8 16,1 4 2 NNW 1016,8 20 0,0
21.08.2018 02:00:00 23,4 16,2 4 2 NO 1016,8 20 -
21.08.2018 01:00:00 23,9 15,9 5 3 ZZO 1016,6 8 0,0
21.08.2018 00:00:00 24,8 16,0 5 3 N 1016,2 20 0,0
20.08.2018 23:00:00 26,0 15,4 5 3 ZO 1016,0 4,2 -
20.08.2018 22:00:00 27,0 15,7 8 4 ZZO 1015,8 20 0,0
20.08.2018 21:00:00 28,6 16,2 11 6 ZZO 1015,3 20 0,0
20.08.2018 20:00:00 31,1 15,5 15 8 ZZO 1014,8 12 -
20.08.2018 19:00:00 33,9 15,4 15 8 Z 1015,0 20 0,0
20.08.2018 18:00:00 35,6 14,8 13 7 Z 1015,5 20 0,0
20.08.2018 17:00:00 35,4 15,2 13 7 ZZO 1015,9 12 -
20.08.2018 16:00:00 35,7 14,4 15 8 ZO 1016,5 20 0,0
20.08.2018 15:00:00 35,8 10,8 11 6 O 1017,1 20 0,0
20.08.2018 14:00:00 35,5 13,1 11 6 NO 1017,5 12 -
20.08.2018 13:00:00 33,6 14,1 13 7 NNO 1018,0 20 0,0
20.08.2018 12:00:00 31,8 13,5 16 9 NNO 1018,8 20 0,0
20.08.2018 11:00:00 30,2 13,9 13 7 NNO 1019,0 12 -
20.08.2018 10:00:00 28,0 13,9 13 7 NNO 1019,0 20 0,0
20.08.2018 09:00:00 25,4 14,8 13 7 NNO 1019,0 20 0,0
20.08.2018 08:00:00 22,8 14,4 11 6 NNO 1018,9 12 -
20.08.2018 07:00:00 22,3 14,2 11 6 N 1018,7 20 0,0
20.08.2018 06:00:00 22,2 14,1 11 6 NNO 1018,5 20 0,0
20.08.2018 05:00:00 21,9 14,3 11 6 N 1018,3 20 -
20.08.2018 04:00:00 20,4 15,2 5 3 N 1018,7 13 0,0
20.08.2018 03:00:00 20,9 15,7 4 2 NNW 1019,0 13 0,0
20.08.2018 02:00:00 22,1 15,7 2 1 NNO 1019,1 20 -
20.08.2018 01:00:00 22,7 15,8 2 1 N 1019,2 20 0,0
20.08.2018 00:00:00 23,7 15,5 5 3 NNW 1019,0 20 0,0
19.08.2018 23:00:00 24,6 15,2 2 1 WZW 1018,9 20 -
19.08.2018 22:00:00 25,6 15,0 8 4 OZO 1018,6 20 0,0
19.08.2018 21:00:00 27,0 15,1 9 5 ZZO 1018,3 20 0,0
19.08.2018 20:00:00 29,5 14,9 13 7 Z 1018,2 12 -
19.08.2018 19:00:00 32,2 16,1 13 7 Z 1018,0 20 0,0
19.08.2018 18:00:00 32,2 15,2 11 6 ZO 1018,2 20 0,0
19.08.2018 17:00:00 32,4 15,0 15 8 ZO 1018,6 12 -
19.08.2018 16:00:00 34,4 14,8 13 7 ZO 1018,6 20 0,0
19.08.2018 15:00:00 34,2 11,4 4 2 ONO 1019,0 20 0,0
19.08.2018 14:00:00 34,1 13,0 8 4 N 1019,4 12 -
19.08.2018 13:00:00 32,7 13,8 9 5 NNO 1020,0 20 0,0
19.08.2018 12:00:00 30,1 13,4 15 8 NNO 1020,4 20 0,0
19.08.2018 11:00:00 28,5 13,6 15 8 N 1020,7 12 -
19.08.2018 10:00:00 26,0 13,8 11 6 NNO 1020,9 20 0,0
19.08.2018 09:00:00 23,6 13,7 11 6 NNO 1020,9 20 0,0
19.08.2018 08:00:00 20,1 13,1 11 6 N 1020,8 15 -
19.08.2018 07:00:00 18,7 13,5 11 6 N 1020,5 20 0,0
19.08.2018 06:00:00 18,2 14,9 8 4 NNW 1020,4 20 0,0
19.08.2018 05:00:00 18,4 15,3 4 2 NNW 1020,4 20 -
19.08.2018 04:00:00 18,8 15,5 5 3 N 1020,4 20 0,0
19.08.2018 03:00:00 19,5 15,8 2 1 O 1020,3 19 0,0
19.08.2018 02:00:00 20,1 16,1 5 3 NNW 1020,4 20 -
19.08.2018 01:00:00 20,6 16,6 5 3 N 1020,5 20 0,0
19.08.2018 00:00:00 21,4 16,4 5 3 NNW 1020,5 20 0,0
18.08.2018 23:00:00 22,7 16,7 5 3 NO 1019,9 20 -
18.08.2018 22:00:00 23,4 16,2 4 2 Z 1019,4 20 0,0
18.08.2018 21:00:00 24,5 16,0 9 5 ZO 1018,8 20 0,0
18.08.2018 20:00:00 27,0 15,4 15 8 ZZO 1018,3 15 -
18.08.2018 19:00:00 28,6 13,7 13 7 ZO 1018,2 20 0,0
18.08.2018 18:00:00 29,5 14,1 15 8 ZO 1018,2 20 0,0
18.08.2018 17:00:00 31,0 14,6 18 10 ZZO 1018,3 12 -
18.08.2018 16:00:00 31,7 11,5 9 5 ONO 1018,5 20 0,0
18.08.2018 15:00:00 31,1 12,0 11 6 NNO 1018,9 20 0,0
18.08.2018 14:00:00 30,0 11,5 15 8 NNO 1019,4 12 -
18.08.2018 13:00:00 28,5 11,1 15 8 NNO 1019,8 20 0,0
18.08.2018 12:00:00 26,9 11,0 16 9 NNO 1020,2 20 0,0
18.08.2018 11:00:00 25,1 12,0 15 8 NNO 1020,5 12 -
18.08.2018 10:00:00 23,1 11,8 13 7 NNO 1020,5 20 0,0
18.08.2018 09:00:00 21,2 11,2 9 5 N 1020,5 20 0,0
18.08.2018 08:00:00 19,0 10,8 9 5 N 1020,4 12 -
18.08.2018 07:00:00 18,7 10,3 11 6 N 1020,1 20 0,0
18.08.2018 06:00:00 19,4 10,4 11 6 N 1019,6 20 0,0
18.08.2018 05:00:00 20,1 9,6 13 7 NNW 1019,7 20 -
18.08.2018 04:00:00 20,0 10,1 16 9 NW 1019,6 20 0,0
18.08.2018 03:00:00 20,0 10,1 15 8 NW 1019,5 20 0,0
18.08.2018 02:00:00 20,4 11,1 21 11 NW 1019,3 20 -
18.08.2018 01:00:00 19,0 13,8 13 7 NNW 1019,3 20 0,0
18.08.2018 00:00:00 19,8 19,0 8 4 N 1019,0 9 0,0
17.08.2018 23:00:00 20,2 19,0 4 2 NNW 1019,4 20 -
17.08.2018 22:00:00 20,7 19,0 4 2 ZO 1019,4 20 0,8
17.08.2018 21:00:00 21,5 20,3 4 2 ZW 1018,7 7 4,0
17.08.2018 20:00:00 22,4 21,0 5 3 ZZW 1017,9 8 -
17.08.2018 19:00:00 24,8 20,7 13 7 NNO 1017,1 14 0,2
17.08.2018 18:00:00 28,7 18,2 16 9 OZO 1015,7 20 0,0
17.08.2018 17:00:00 30,9 16,9 16 9 ZO 1015,3 10 -
17.08.2018 16:00:00 35,1 13,9 5 3 NO 1015,1 20 0,0
17.08.2018 15:00:00 34,3 13,7 11 6 NNW 1015,5 20 0,0
17.08.2018 14:00:00 34,3 15,2 9 5 N 1015,9 10 -
17.08.2018 13:00:00 32,9 15,9 11 6 NNO 1016,5 20 0,0
17.08.2018 12:00:00 31,0 15,0 9 5 NW 1017,1 20 0,0
17.08.2018 11:00:00 29,3 16,5 11 6 NO 1017,0 10 -
17.08.2018 10:00:00 - - - - - - - -
17.08.2018 09:00:00 - - - - - - - -
17.08.2018 08:00:00 - - - - - - - -
17.08.2018 07:00:00 - - - - - - - -
17.08.2018 06:00:00 - - - - - - - -
17.08.2018 05:00:00 - - - - - - - -
17.08.2018 04:00:00 - - - - - - - -
17.08.2018 03:00:00 - - - - - - - -
17.08.2018 02:00:00 - - - - - - - -
17.08.2018 01:00:00 - - - - - - - -
17.08.2018 00:00:00 - - - - - - - -
16.08.2018 23:00:00 24,8 21,1 4 2 N 1015,1 20 -
16.08.2018 22:00:00 25,3 21,0 4 2 Z 1014,3 19 0,0
16.08.2018 21:00:00 26,1 20,9 9 5 ZO 1013,6 20 0,0
16.08.2018 20:00:00 27,2 21,0 11 6 OZO 1013,3 10 -
16.08.2018 19:00:00 29,0 20,7 13 7 ZZO 1012,6 20 0,0
16.08.2018 18:00:00 31,1 20,1 13 7 ZO 1012,8 20 0,0
16.08.2018 17:00:00 32,5 18,3 15 8 ZO 1013,4 12 -
16.08.2018 16:00:00 31,4 19,1 15 8 ZZO 1014,1 20 0,0
16.08.2018 15:00:00 30,5 19,8 16 9 ZO 1014,2 20 0,0
16.08.2018 14:00:00 30,0 20,6 16 9 ZO 1014,9 10 -
16.08.2018 13:00:00 30,6 20,8 13 7 ZZO 1015,1 20 0,0
16.08.2018 12:00:00 31,3 20,6 9 5 Z 1015,0 20 0,0
16.08.2018 11:00:00 29,0 21,2 13 7 ZZO 1015,6 9 -
16.08.2018 10:00:00 26,2 22,3 8 4 ZZO 1015,9 19 0,0
16.08.2018 09:00:00 25,4 22,1 9 5 ZZO 1015,6 17 0,0
16.08.2018 08:00:00 24,3 21,6 5 3 ZZO 1015,6 7 -
16.08.2018 07:00:00 24,0 21,5 5 3 Z 1015,6 20 0,0
16.08.2018 06:00:00 24,1 21,4 8 4 ZZO 1015,3 20 0,0
16.08.2018 05:00:00 23,6 21,1 8 4 ZZO 1015,4 20 -
16.08.2018 04:00:00 23,7 20,8 5 3 Z 1015,8 20 0,0
16.08.2018 03:00:00 24,4 21,3 8 4 Z 1016,1 20 0,0
16.08.2018 02:00:00 24,5 21,4 8 4 Z 1016,5 12 -
16.08.2018 01:00:00 24,7 21,2 9 5 ZZO 1016,5 6 0,0

tt = temperatuur
td = dauwpunt
ff = windsnelheid
dd = windrichting
ppp = luchtdruk
vv = zicht
rr = neerslag

Weerstations in de omgeving